Regional Weather Roundup
Issued by NWS

Home | Current Version | Previous Version | Graphics & Text | Print | Product List | Glossary On
Versions: 1 2 3 4 5 6 7 8 9 10 11 12 13 14 15 16 17 18 19 20 21 22 23 24 25 26 27 28 29 30 31 32 33 34 35 36 37 38 39 40 41 42 43 44 45 46 47 48 49 50
000
ASUS43 KDMX 211506
RWRIA

WEATHER ROUNDUP FOR IOWA
NATIONAL WEATHER SERVICE DES MOINES IA
1000 AM CDT MON AUG 21 2017

NOTE: "FAIR" INDICATES FEW OR NO CLOUDS BELOW 12,000 FEET WITH NO
SIGNIFICANT WEATHER AND/OR OBSTRUCTIONS TO VISIBILITY.

* - THESE STATIONS ARE NOT NWS STATIONS...THUS NOT UNDER NWS
QUALITY CONTROL.  THEY ALSO DO NOT REPORT WEATHER SUCH
AS PRECIPITATION OR FOG.

IAZ001>003-012>014-020>022-031>034-043>046-211600-
   NORTHWEST IOWA

CITY           SKY/WX    TMP DP  RH WIND       PRES   REMARKS
CARROLL *      CLOUDY    68  64  88 S16G24    29.98F
DENISON *      CLOUDY    70  66  88 S9        30.01F
LE MARS *      CLOUDY   102 N/A N/A SE10      29.97F
ORANGE CITY *  CLOUDY    72  66  83 S9        29.98F
SHELDON *      PTSUNNY   73  64  73 S15G22    29.97F
SIOUX CITY     MOSUNNY   74  66  76 SE16G23   29.96F
SPENCER        CLOUDY    72  65  78 SW10      30.00R
STORM LAKE *   LGT RAIN  66  63  88 S12G18    29.99F
$$

IAZ055>058-069>071-079>083-090>094-211600-
   SOUTHWEST IOWA

CITY           SKY/WX    TMP DP  RH WIND       PRES   REMARKS
ATLANTIC *     PTSUNNY   68  66  94 SE13G21   30.04R
AUDUBON *      CLOUDY    70  64  83 S8G18     30.02F
CLARINDA *     CLOUDY    70  64  83 SE10G23   30.09F
COUNCIL BLFS * MOSUNNY   72  72 100 SE17G26   30.02F
CRESTON *      CLOUDY    66  66 100 E13       30.10F
HARLAN  *      CLOUDY    70  68  94 SE8G14    30.06F
LAMONI         CLOUDY    69  65  86 N10G24    30.13R
RED OAK *      CLOUDY    72  68  88 SE14G26   30.04F
SHENANDOAH *   CLOUDY    73  64  73 E20G35    30.05F
$$

IAZ047>049-059>061-072>074-084-211600-
   CENTRAL IOWA

CITY           SKY/WX    TMP DP  RH WIND       PRES   REMARKS
AMES           CLOUDY    73  63  70 SW22G32   29.96R
ANKENY *       LGT RAIN  70  63  78 SW24G33   30.05R
BOONE *        CLOUDY    75  61  60 SW18G31   29.98R
CHARITON *     CLOUDY    68  66  94 CALM      30.11S
DES MOINES     TSTM      67  65  93 SW21      30.10R FOG
GRINNELL*      CLOUDY    71  61  70 SW17G23   29.97F
KNOXVILLE *    CLOUDY    66  64  94 SW6G12    30.07F
MARSHALLTOWN   CLOUDY    70  65  84 E6        29.96R
NEWTON *       CLOUDY    73  61  64 SW29G38   29.93F
PELLA *        RAIN      67  65  96 S8        30.08S
PERRY *        RAIN      68  65  93 S17G26    30.03F
$$

IAZ004>006-015-016-023>025-035-036-211600-
   NORTH CENTRAL IOWA

CITY           SKY/WX    TMP DP  RH WIND       PRES   REMARKS
ALGONA *       CLOUDY    72  64  78 SW12      30.00R
CLARION *      CLOUDY    66  66 100 CALM      29.99R
ESTHERVILLE    PTSUNNY   71  66  84 SW7       30.00R
FORT DODGE *   PTSUNNY   66  61  82 SW6       30.01R
MASON CITY     PTSUNNY   71  63  75 E6        30.03R
FOREST CITY *    N/A     73  61  64 E5        30.01R
WEBSTER CITY * PTSUNNY   66  63  88 W5        29.99R
IOWA FALLS *     N/A     69  64  84 CALM      30.01R
$$

IAZ007>011-017>019-026>030-037>042-050>054-066-211600-
   NORTHEAST IOWA

CITY           SKY/WX    TMP DP  RH WIND       PRES   REMARKS
CEDAR RAPIDS   CLOUDY    71  67  87 S10       30.02R
CHARLES CITY * PTSUNNY   72  66  83 E6        30.03S
CLINTON *      CLOUDY    71  68  90 E7        30.04F
DECORAH *      PTSUNNY   72  64  78 CALM      30.03R
DUBUQUE        CLOUDY    70  65  84 E9        30.01F
MONTICELLO *   PTSUNNY   72  66  83 CALM      30.00R
OELWEIN *      CLOUDY    70  64  83 NE7       30.03R
WATERLOO       CLOUDY    71  62  73 NE7       30.00R
$$

IAZ064-065-067-068-078-211600-
   EAST CENTRAL IOWA

CITY           SKY/WX    TMP DP  RH WIND       PRES   REMARKS
DAVENPORT      CLOUDY    71  68  90 SW5       30.08R
IOWA CITY      CLOUDY    71  66  84 SE16      30.02F
MUSCATINE *    PTSUNNY   72  68  88 S13       30.07F
QUAD CITIES    CLOUDY    72  68  87 S13       30.10R
$$

IAZ062-063-075>077-085>089-095>099-211600-
   SOUTHEAST IOWA

CITY           SKY/WX    TMP DP  RH WIND       PRES   REMARKS
BURLINGTON     PTSUNNY   71  70  96 VRB3      30.10F
FAIRFIELD *    CLOUDY    70  66  88 S6        30.08F
FORT MADISON * CLOUDY    70  70 100 E7        30.11S
KEOKUK *       CLOUDY    72  70  94 E8        30.09F
OSKALOOSA *      N/A     67  66  97 S8        30.07F
OTTUMWA        CLOUDY    70  68  93 SW5       30.08F
WASHINGTON *   CLOUDY    70  70 100 S13G20    30.06F
$$

ABBREVIATIONS USED IN REMARKS
   TC - TEMPERATURES IN CELSIUS
  WCI - WIND CHILL INDEX
   HX - HEAT INDEX
  VSB - VISIBILITY
$$





USA.gov is the U.S. government's official web portal to all federal, state and local government web resources and services.